Location: DaVinci Observatory
(43.1080°N, 78.6453°W)
Time: 13:09:27
(UTC-05:00)

Envisat - Pass Details

Date: 08 October 2017
Orbit: 764 x 766 km, 98.2° (Epoch: 11 December)

Event Time Altitude Azimuth Distance (km) Brightness Sun altitude
Exits shadow 20:41:26 54° 106° (ESE) 927 3.0 -22.3°
Maximum altitude 20:42:06 59° 72° (ENE) 883 3.0 -22.4°
Drops below altitude 10° 20:47:06 10° 354° (N) 2,314 5.7 -23.3°
Sets 20:49:27 0° 351° (N) 3,245 6.5 -23.7°
